{"data":{"norad_id":63648,"intl_designator":"2025-083Q","name":"STARLINK-33717","alt_names":[],"object_type":"PAYLOAD","status":"ACTIVE","operator":null,"country":"US","launch_date":"2025-04-25","launch_site_code":"AFETR","launch_vehicle":null,"mission":null,"orbit_class":"UNKNOWN","rcs_meters":null,"size_class":null,"mass_kg":null,"dimensions":null,"purposes":["comms"],"wikipedia_slug":null,"has_3d_model":false,"image_url":null,"decayed_at":null,"tle_current":{"epoch":"2026-05-24T21:24:10.225728Z","epoch_age_seconds":78228,"freshness":"FRESH","line1":"1 63648U 25083Q   26144.89178502  .00025280  00000+0  92439-3 0  9998","line2":"2 63648  42.9996 294.6353 0002321 298.1386  61.9231 15.27601887 61728","mean_motion":15.27601887,"eccentricity":0.0002321,"inclination_deg":42.9996,"raan_deg":294.6353,"arg_perigee_deg":298.1386,"mean_anomaly_deg":61.9231,"bstar":0.00092439,"rev_number":6172,"period_min":94.265398089286,"perigee_km":481.39109318854,"apogee_km":484.57602535216,"semimajor_km":6861.1205592703,"source":"CELESTRAK","updated_at":"2026-05-25T13:38:20.054978Z"}}}